| time (UTC) | temp C | wind direction | speed KPH | gust KPH | rain 1hr cm | rain 24hr cm | rain mn cm | humidity % | barometer mb |
| 20260508065550 | 18 | 69 | 4.8 | 9.7 | 0.00 | 0.00 | 0.00 | 74 | 1017.5 |
| 20260508065035 | 18 | 0 | 1.6 | 6.4 | 0.00 | 0.00 | 0.00 | 74 | 1017.8 |
| 20260508064542 | 18 | 0 | 0.0 | 6.4 | 0.00 | 0.00 | 0.00 | 74 | 1018.0 |
| 20260508064037 | 18 | 0 | 0.0 | 11.3 | 0.00 | 0.00 | 0.00 | 74 | 1018.0 |
| 20260508063538 | 18 | 78 | 1.6 | 11.3 | 0.00 | 0.00 | 0.00 | 74 | 1018.0 |
| 20260508063041 | 18 | 100 | 0.0 | 6.4 | 0.00 | 0.00 | 0.00 | 74 | 1018.0 |
| 20260508062536 | 18 | 0 | 0.0 | 11.3 | 0.00 | 0.00 | 0.00 | 74 | 1017.9 |
| 20260508062036 | 18 | 0 | 1.6 | 12.9 | 0.00 | 0.00 | 0.00 | 74 | 1017.8 |
| 20260508061541 | 18 | 53 | 1.6 | 12.9 | 0.00 | 0.00 | 0.00 | 74 | 1017.5 |
| 20260508061036 | 18 | 44 | 1.6 | 12.9 | 0.00 | 0.00 | 0.00 | 74 | 1017.7 |
| 20260508060537 | 18 | 34 | 1.6 | 9.7 | 0.00 | 0.00 | 0.00 | 74 | 1017.8 |
| 20260508060049 | 18 | 30 | 1.6 | 8.0 | 0.00 | 0.00 | 0.00 | 74 | 1018.0 |
| 20260508055536 | 18 | 0 | 1.6 | 8.0 | 0.00 | 0.00 | 0.00 | 74 | 1018.5 |
| 20260508055036 | 18 | 11 | 1.6 | 16.1 | 0.00 | 0.00 | 0.00 | 74 | 1018.8 |
| 20260508054604 | 18 | 0 | 1.6 | 16.1 | 0.00 | 0.00 | 0.00 | 74 | 1018.9 |
| 20260508054035 | 18 | 44 | 0.0 | 8.0 | 0.00 | 0.00 | 0.00 | 74 | 1019.0 |
| 20260508053538 | 18 | 352 | 1.6 | 8.0 | 0.00 | 0.00 | 0.00 | 74 | 1019.1 |
| 20260508053045 | 18 | 0 | 0.0 | 11.3 | 0.00 | 0.00 | 0.00 | 74 | 1019.3 |
| 20260508052536 | 18 | 311 | 1.6 | 11.3 | 0.00 | 0.00 | 0.00 | 74 | 1019.3 |
| 20260508052038 | 18 | 0 | 0.0 | 9.7 | 0.00 | 0.00 | 0.00 | 74 | 1019.3 |
| 20260508051542 | 18 | 279 | 0.0 | 4.8 | 0.00 | 0.00 | 0.00 | 73 | 1019.4 |
| 20260508051036 | 18 | 283 | 0.0 | 3.2 | 0.00 | 0.00 | 0.00 | 74 | 1019.4 |
| 20260508050537 | 18 | 0 | 0.0 | 1.6 | 0.00 | 0.00 | 0.00 | 74 | 1019.1 |
| 20260508050050 | 18 | 0 | 0.0 | 8.0 | 0.00 | 0.00 | 0.00 | 74 | 1018.4 |
| 20260508045536 | 18 | 0 | 0.0 | 9.7 | 0.00 | 0.00 | 0.00 | 73 | 1018.0 |
| 20260508045036 | 18 | 59 | 3.2 | 14.5 | 0.00 | 0.00 | 0.00 | 73 | 1017.8 |
| 20260508044557 | 18 | 0 | 3.2 | 14.5 | 0.00 | 0.00 | 0.00 | 73 | 1017.5 |
| 20260508044037 | 18 | 0 | 1.6 | 14.5 | 0.00 | 0.00 | 0.00 | 73 | 1017.7 |
| 20260508043536 | 18 | 352 | 1.6 | 16.1 | 0.00 | 0.00 | 0.00 | 73 | 1017.6 |
| 20260508043048 | 18 | 47 | 3.2 | 16.1 | 0.00 | 0.00 | 0.00 | 73 | 1017.5 |
| 20260508042538 | 18 | 42 | 3.2 | 16.1 | 0.00 | 0.00 | 0.00 | 73 | 1017.5 |
| 20260508042036 | 18 | 26 | 3.2 | 16.1 | 0.00 | 0.00 | 0.00 | 73 | 1017.8 |
| 20260508041556 | 18 | 46 | 3.2 | 16.1 | 0.00 | 0.00 | 0.00 | 73 | 1017.9 |
| 20260508041036 | 18 | 0 | 1.6 | 14.5 | 0.00 | 0.00 | 0.00 | 73 | 1017.9 |
| 20260508040536 | 18 | 0 | 1.6 | 14.5 | 0.00 | 0.00 | 0.00 | 73 | 1017.8 |
| 20260508040056 | 18 | 43 | 1.6 | 19.3 | 0.00 | 0.00 | 0.00 | 73 | 1017.9 |
| 20260508035536 | 18 | 12 | 1.6 | 19.3 | 0.00 | 0.00 | 0.00 | 73 | 1018.2 |
| 20260508035036 | 18 | 341 | 1.6 | 17.7 | 0.00 | 0.00 | 0.00 | 72 | 1018.5 |
| 20260508034555 | 18 | 9 | 3.2 | 17.7 | 0.00 | 0.00 | 0.00 | 73 | 1018.8 |
| 20260508034058 | 18 | 0 | 3.2 | 12.9 | 0.00 | 0.00 | 0.00 | 73 | 1018.7 |
| 20260508033533 | 18 | 329 | 1.6 | 12.9 | 0.00 | 0.00 | 0.00 | 73 | 1018.9 |
| 20260508033044 | 18 | 41 | 1.6 | 11.3 | 0.00 | 0.00 | 0.00 | 74 | 1019.0 |
| 20260508032538 | 18 | 302 | 3.2 | 8.0 | 0.00 | 0.00 | 0.00 | 74 | 1019.0 |
| 20260508032035 | 18 | 22 | 1.6 | 11.3 | 0.00 | 0.00 | 0.00 | 75 | 1018.7 |
| 20260508031558 | 18 | 0 | 0.0 | 11.3 | 0.00 | 0.00 | 0.00 | 75 | 1018.8 |
| 20260508031034 | 18 | 0 | 1.6 | 11.3 | 0.00 | 0.00 | 0.00 | 75 | 1018.7 |
| 20260508030534 | 18 | 352 | 0.0 | 4.8 | 0.00 | 0.00 | 0.00 | 76 | 1018.6 |
| 20260508030106 | 18 | 308 | 0.0 | 4.8 | 0.00 | 0.00 | 0.00 | 75 | 1018.7 |
| 20260508025534 | 18 | 0 | 0.0 | 3.2 | 0.00 | 0.00 | 0.00 | 75 | 1018.4 |
| 20260508025034 | 18 | 0 | 0.0 | 3.2 | 0.00 | 0.00 | 0.00 | 76 | 1018.5 |
| 20260508024540 | 18 | 0 | 0.0 | 0.0 | 0.00 | 0.00 | 0.00 | 75 | 1018.4 |
| 20260508024034 | 18 | 0 | 0.0 | 0.0 | 0.00 | 0.00 | 0.00 | 75 | 1018.3 |
| 20260508023535 | 18 | 0 | 0.0 | 1.6 | 0.00 | 0.00 | 0.00 | 74 | 1018.3 |
| 20260508023047 | 18 | 0 | 0.0 | 4.8 | 0.00 | 0.00 | 0.00 | 74 | 1018.3 |
| 20260508022534 | 18 | 0 | 0.0 | 4.8 | 0.00 | 0.00 | 0.00 | 74 | 1018.3 |
| 20260508022035 | 18 | 0 | 0.0 | 3.2 | 0.00 | 0.00 | 0.00 | 74 | 1018.1 |
| 20260508021542 | 19 | 0 | 0.0 | 3.2 | 0.00 | 0.00 | 0.00 | 73 | 1018.2 |
| 20260508021035 | 19 | 0 | 0.0 | 3.2 | 0.00 | 0.00 | 0.00 | 73 | 1018.2 |
| 20260508020534 | 19 | 0 | 0.0 | 4.8 | 0.00 | 0.00 | 0.00 | 73 | 1018.1 |
| 20260508020041 | 19 | 0 | 0.0 | 9.7 | 0.00 | 0.00 | 0.00 | 73 | 1017.9 |
| 20260508015534 | 19 | 0 | 0.0 | 9.7 | 0.00 | 0.00 | 0.00 | 73 | 1017.9 |
| 20260508015034 | 19 | 78 | 0.0 | 12.9 | 0.00 | 0.00 | 0.00 | 72 | 1017.5 |
| 20260508014540 | 19 | 52 | 3.2 | 12.9 | 0.00 | 0.00 | 0.00 | 72 | 1017.2 |
| 20260508014037 | 19 | 101 | 4.8 | 12.9 | 0.00 | 0.00 | 0.00 | 72 | 1016.9 |
| 20260508013535 | 19 | 97 | 4.8 | 9.7 | 0.00 | 0.00 | 0.00 | 72 | 1017.1 |
| 20260508013039 | 19 | 101 | 1.6 | 16.1 | 0.00 | 0.00 | 0.00 | 72 | 1017.1 |
| 20260508012534 | 19 | 84 | 1.6 | 16.1 | 0.00 | 0.00 | 0.00 | 71 | 1017.1 |
| 20260508012034 | 19 | 65 | 3.2 | 16.1 | 0.00 | 0.00 | 0.00 | 71 | 1016.7 |
| 20260508011554 | 19 | 59 | 4.8 | 16.1 | 0.00 | 0.00 | 0.00 | 71 | 1016.5 |
| 20260508011035 | 19 | 84 | 6.4 | 16.1 | 0.00 | 0.00 | 0.00 | 71 | 1016.6 |
| 20260508010534 | 19 | 81 | 8.0 | 16.1 | 0.00 | 0.00 | 0.00 | 70 | 1016.7 |
| 20260508010050 | 19 | 78 | 6.4 | 16.1 | 0.00 | 0.00 | 0.00 | 70 | 1016.6 |
| 20260508005536 | 20 | 95 | 4.8 | 16.1 | 0.00 | 0.00 | 0.00 | 70 | 1016.8 |
| 20260508005034 | 20 | 82 | 8.0 | 17.7 | 0.00 | 0.00 | 0.00 | 69 | 1017.0 |
| 20260508004542 | 20 | 54 | 4.8 | 17.7 | 0.00 | 0.00 | 0.00 | 70 | 1017.4 |
| 20260508004035 | 20 | 61 | 4.8 | 17.7 | 0.00 | 0.00 | 0.00 | 69 | 1017.4 |
| 20260508003535 | 20 | 28 | 3.2 | 11.3 | 0.00 | 0.00 | 0.00 | 69 | 1017.6 |
| 20260508003044 | 20 | 55 | 4.8 | 11.3 | 0.00 | 0.00 | 0.00 | 68 | 1017.7 |
| 20260508002534 | 20 | 120 | 1.6 | 16.1 | 0.00 | 0.00 | 0.00 | 69 | 1017.6 |
| 20260508002034 | 20 | 73 | 3.2 | 16.1 | 0.00 | 0.00 | 0.00 | 69 | 1017.9 |
| 20260508001543 | 20 | 74 | 3.2 | 12.9 | 0.00 | 0.00 | 0.00 | 68 | 1017.8 |
| 20260508001034 | 20 | 73 | 1.6 | 9.7 | 0.00 | 0.00 | 0.00 | 68 | 1018.0 |
| 20260508000534 | 20 | 54 | 1.6 | 14.5 | 0.00 | 0.00 | 0.00 | 68 | 1018.4 |
| 20260508000048 | 20 | 360 | 4.8 | 16.1 | 0.00 | 0.00 | 0.00 | 68 | 1018.5 |
| 20260507235534 | 20 | 5 | 3.2 | 20.9 | 0.00 | 0.00 | 0.00 | 68 | 1018.4 |
| 20260507235034 | 20 | 278 | 4.8 | 20.9 | 0.00 | 0.00 | 0.00 | 68 | 1018.2 |
| 20260507234542 | 20 | 26 | 3.2 | 16.1 | 0.00 | 0.00 | 0.00 | 68 | 1018.4 |
| 20260507234034 | 20 | 10 | 4.8 | 16.1 | 0.00 | 0.00 | 0.00 | 67 | 1018.4 |
| 20260507233535 | 20 | 352 | 1.6 | 19.3 | 0.00 | 0.00 | 0.00 | 67 | 1018.7 |
| 20260507233043 | 20 | 5 | 3.2 | 19.3 | 0.00 | 0.00 | 0.00 | 67 | 1018.7 |
| 20260507232538 | 20 | 39 | 3.2 | 16.1 | 0.00 | 0.00 | 0.00 | 67 | 1018.5 |
| 20260507232034 | 20 | 76 | 3.2 | 17.7 | 0.00 | 0.00 | 0.00 | 67 | 1018.3 |
| 20260507231550 | 21 | 331 | 4.8 | 17.7 | 0.00 | 0.00 | 0.00 | 66 | 1018.4 |
| 20260507231034 | 21 | 84 | 1.6 | 17.7 | 0.00 | 0.00 | 0.00 | 66 | 1018.4 |
| 20260507230536 | 21 | 65 | 4.8 | 14.5 | 0.00 | 0.00 | 0.00 | 67 | 1018.3 |
| 20260507230041 | 21 | 27 | 1.6 | 14.5 | 0.00 | 0.00 | 0.00 | 67 | 1018.6 |
| 20260507225534 | 21 | 0 | 0.0 | 22.5 | 0.00 | 0.00 | 0.00 | 68 | 1018.8 |
| 20260507225034 | 21 | 0 | 4.8 | 22.5 | 0.00 | 0.00 | 0.00 | 67 | 1019.0 |
| 20260507224558 | 21 | 46 | 3.2 | 19.3 | 0.00 | 0.00 | 0.00 | 67 | 1018.7 |
| 20260507224034 | 21 | 0 | 0.0 | 19.3 | 0.00 | 0.00 | 0.00 | 68 | 1018.8 |
| 20260507223534 | 20 | 349 | 3.2 | 19.3 | 0.00 | 0.00 | 0.00 | 67 | 1019.0 |
| 20260507223047 | 20 | 352 | 4.8 | 20.9 | 0.00 | 0.00 | 0.00 | 68 | 1018.8 |
| 20260507222535 | 21 | 35 | 3.2 | 20.9 | 0.00 | 0.00 | 0.00 | 68 | 1019.2 |
| 20260507222034 | 21 | 317 | 4.8 | 19.3 | 0.00 | 0.00 | 0.00 | 68 | 1019.3 |
| 20260507221543 | 21 | 13 | 4.8 | 19.3 | 0.00 | 0.00 | 0.00 | 68 | 1019.2 |
| 20260507221034 | 21 | 28 | 1.6 | 19.3 | 0.00 | 0.00 | 0.00 | 69 | 1019.2 |
| 20260507220535 | 21 | 0 | 4.8 | 19.3 | 0.00 | 0.00 | 0.00 | 68 | 1019.2 |
| 20260507220040 | 21 | 332 | 4.8 | 17.7 | 0.00 | 0.00 | 0.00 | 69 | 1019.0 |
| 20260507215535 | 21 | 0 | 3.2 | 20.9 | 0.00 | 0.00 | 0.00 | 69 | 1019.2 |
| 20260507215035 | 21 | 314 | 4.8 | 20.9 | 0.00 | 0.00 | 0.00 | 69 | 1019.2 |
| 20260507214541 | 21 | 24 | 4.8 | 20.9 | 0.00 | 0.00 | 0.00 | 70 | 1019.2 |
| 20260507214034 | 21 | 349 | 4.8 | 20.9 | 0.00 | 0.00 | 0.00 | 69 | 1019.2 |
| 20260507213534 | 21 | 49 | 3.2 | 19.3 | 0.00 | 0.00 | 0.00 | 70 | 1019.1 |
| 20260507213047 | 21 | 15 | 6.4 | 19.3 | 0.00 | 0.00 | 0.00 | 69 | 1019.1 |
| 20260507212534 | 22 | 331 | 3.2 | 17.7 | 0.00 | 0.00 | 0.00 | 68 | 1019.2 |
| 20260507212036 | 22 | 301 | 6.4 | 25.7 | 0.00 | 0.00 | 0.00 | 66 | 1019.1 |
| 20260507211544 | 22 | 325 | 6.4 | 25.7 | 0.00 | 0.00 | 0.00 | 66 | 1018.9 |
| 20260507211035 | 22 | 5 | 8.0 | 24.1 | 0.00 | 0.00 | 0.00 | 66 | 1018.8 |
| 20260507210536 | 23 | 46 | 4.8 | 17.7 | 0.00 | 0.00 | 0.00 | 65 | 1018.9 |
| 20260507210108 | 23 | 0 | 3.2 | 20.9 | 0.00 | 0.00 | 0.00 | 67 | 1018.5 |
| 20260507205536 | 23 | 352 | 8.0 | 20.9 | 0.00 | 0.00 | 0.00 | 65 | 1018.7 |
| 20260507205039 | 23 | 35 | 3.2 | 16.1 | 0.00 | 0.00 | 0.00 | 66 | 1018.8 |
| 20260507204538 | 23 | 78 | 4.8 | 19.3 | 0.00 | 0.00 | 0.00 | 65 | 1018.7 |
| 20260507204036 | 24 | 60 | 3.2 | 19.3 | 0.00 | 0.00 | 0.00 | 65 | 1018.7 |
| 20260507203536 | 24 | 0 | 3.2 | 17.7 | 0.00 | 0.00 | 0.00 | 64 | 1018.9 |
| 20260507203040 | 24 | 26 | 6.4 | 17.7 | 0.00 | 0.00 | 0.00 | 64 | 1018.8 |
| 20260507202539 | 24 | 0 | 1.6 | 19.3 | 0.00 | 0.00 | 0.00 | 64 | 1018.6 |
| 20260507202036 | 23 | 0 | 6.4 | 19.3 | 0.00 | 0.00 | 0.00 | 66 | 1018.7 |
| 20260507201538 | 23 | 35 | 3.2 | 17.7 | 0.00 | 0.00 | 0.00 | 66 | 1018.7 |
| 20260507201036 | 23 | 352 | 4.8 | 19.3 | 0.00 | 0.00 | 0.00 | 67 | 1018.9 |
| 20260507200537 | 22 | 13 | 4.8 | 19.3 | 0.00 | 0.00 | 0.00 | 70 | 1019.0 |
| 20260507200055 | 22 | 313 | 3.2 | 16.1 | 0.00 | 0.00 | 0.00 | 70 | 1019.1 |
| 20260507195539 | 22 | 15 | 3.2 | 16.1 | 0.00 | 0.00 | 0.00 | 70 | 1019.2 |
| 20260507195037 | 21 | 0 | 3.2 | 22.5 | 0.00 | 0.00 | 0.00 | 70 | 1019.2 |
| 20260507194541 | 22 | 330 | 6.4 | 22.5 | 0.00 | 0.00 | 0.00 | 70 | 1019.0 |
| 20260507194036 | 21 | 335 | 3.2 | 19.3 | 0.00 | 0.00 | 0.00 | 70 | 1018.9 |
| 20260507193538 | 21 | 0 | 1.6 | 17.7 | 0.00 | 0.00 | 0.00 | 71 | 1018.7 |
| 20260507193109 | 21 | 20 | 6.4 | 24.1 | 0.00 | 0.00 | 0.00 | 70 | 1018.7 |
| 20260507192537 | 21 | 69 | 4.8 | 24.1 | 0.00 | 0.00 | 0.00 | 71 | 1019.0 |
| 20260507192036 | 21 | 336 | 6.4 | 24.1 | 0.00 | 0.00 | 0.00 | 71 | 1019.3 |
| 20260507191545 | 21 | 352 | 4.8 | 14.5 | 0.00 | 0.00 | 0.00 | 71 | 1019.4 |
| 20260507191038 | 21 | 5 | 1.6 | 14.5 | 0.00 | 0.00 | 0.00 | 71 | 1019.7 |
| 20260507190537 | 21 | 85 | 3.2 | 14.5 | 0.00 | 0.00 | 0.00 | 72 | 1019.7 |
| 20260507190047 | 21 | 84 | 3.2 | 11.3 | 0.00 | 0.00 | 0.00 | 73 | 1019.7 |
| 20260507185536 | 21 | 0 | 1.6 | 14.5 | 0.00 | 0.00 | 0.00 | 73 | 1019.8 |
| 20260507185036 | 21 | 347 | 3.2 | 16.1 | 0.00 | 0.00 | 0.00 | 73 | 1020.0 |
| 20260507184542 | 20 | 18 | 1.6 | 16.1 | 0.00 | 0.00 | 0.00 | 74 | 1020.3 |
| 20260507184036 | 20 | 339 | 6.4 | 16.1 | 0.00 | 0.00 | 0.00 | 73 | 1020.2 |
| 20260507183535 | 20 | 21 | 3.2 | 14.5 | 0.00 | 0.00 | 0.00 | 74 | 1020.4 |
| 20260507183049 | 20 | 0 | 1.6 | 14.5 | 0.00 | 0.00 | 0.00 | 75 | 1020.7 |
| 20260507182538 | 20 | 342 | 3.2 | 16.1 | 0.00 | 0.00 | 0.00 | 75 | 1020.9 |
| 20260507182037 | 20 | 308 | 3.2 | 17.7 | 0.00 | 0.00 | 0.00 | 74 | 1020.9 |
| 20260507181540 | 20 | 27 | 4.8 | 17.7 | 0.00 | 0.00 | 0.00 | 73 | 1020.9 |
| 20260507181036 | 20 | 17 | 3.2 | 16.1 | 0.00 | 0.00 | 0.00 | 74 | 1020.7 |
| 20260507180537 | 20 | 0 | 4.8 | 16.1 | 0.00 | 0.00 | 0.00 | 74 | 1020.6 |
| 20260507180040 | 20 | 68 | 6.4 | 16.1 | 0.00 | 0.00 | 0.00 | 74 | 1020.6 |
| 20260507175536 | 20 | 80 | 4.8 | 14.5 | 0.00 | 0.00 | 0.00 | 75 | 1020.6 |
| 20260507175036 | 19 | 0 | 1.6 | 19.3 | 0.00 | 0.00 | 0.00 | 76 | 1020.7 |
| 20260507174546 | 19 | 0 | 3.2 | 22.5 | 0.00 | 0.00 | 0.00 | 77 | 1020.8 |
| 20260507174035 | 18 | 24 | 4.8 | 22.5 | 0.00 | 0.00 | 0.00 | 78 | 1020.8 |
| 20260507173536 | 18 | 19 | 6.4 | 19.3 | 0.00 | 0.00 | 0.00 | 78 | 1020.8 |
| 20260507173056 | 18 | 45 | 4.8 | 19.3 | 0.00 | 0.00 | 0.00 | 79 | 1020.9 |
| 20260507172535 | 18 | 5 | 3.2 | 19.3 | 0.00 | 0.00 | 0.00 | 80 | 1021.0 |
| 20260507172037 | 18 | 0 | 4.8 | 19.3 | 0.00 | 0.00 | 0.00 | 80 | 1021.0 |
| 20260507171551 | 17 | 69 | 3.2 | 19.3 | 0.00 | 0.00 | 0.00 | 80 | 1021.0 |
| 20260507171036 | 17 | 0 | 3.2 | 24.1 | 0.00 | 0.00 | 0.00 | 80 | 1021.1 |
| 20260507170536 | 17 | 5 | 3.2 | 24.1 | 0.00 | 0.00 | 0.00 | 80 | 1021.3 |
| 20260507170047 | 17 | 44 | 6.4 | 24.1 | 0.00 | 0.00 | 0.00 | 80 | 1021.5 |
| 20260507165536 | 17 | 283 | 3.2 | 22.5 | 0.00 | 0.00 | 0.00 | 80 | 1021.5 |
| 20260507165036 | 17 | 5 | 4.8 | 22.5 | 0.00 | 0.00 | 0.00 | 80 | 1021.5 |
| 20260507164540 | 17 | 340 | 3.2 | 19.3 | 0.00 | 0.00 | 0.00 | 81 | 1021.4 |
| 20260507164037 | 17 | 15 | 4.8 | 20.9 | 0.00 | 0.00 | 0.00 | 81 | 1021.4 |
| 20260507163537 | 17 | 70 | 4.8 | 20.9 | 0.00 | 0.00 | 0.00 | 81 | 1021.4 |
| 20260507163040 | 17 | 82 | 4.8 | 19.3 | 0.00 | 0.00 | 0.00 | 81 | 1021.3 |
| 20260507162536 | 17 | 325 | 3.2 | 19.3 | 0.00 | 0.00 | 0.00 | 81 | 1021.2 |
| 20260507162036 | 17 | 13 | 1.6 | 20.9 | 0.00 | 0.00 | 0.00 | 81 | 1021.1 |
| 20260507161605 | 17 | 324 | 4.8 | 24.1 | 0.00 | 0.00 | 0.00 | 81 | 1021.2 |
| 20260507161036 | 17 | 49 | 8.0 | 24.1 | 0.00 | 0.00 | 0.00 | 81 | 1021.1 |
| 20260507160537 | 17 | 28 | 4.8 | 22.5 | 0.00 | 0.00 | 0.00 | 81 | 1021.0 |
| 20260507155537 | 17 | 12 | 8.0 | 33.8 | 0.00 | 0.00 | 0.00 | 81 | 1020.9 |
| 20260507155036 | 17 | 328 | 9.7 | 33.8 | 0.00 | 0.00 | 0.00 | 81 | 1020.9 |
| 20260507154545 | 17 | 75 | 8.0 | 27.4 | 0.00 | 0.00 | 0.00 | 81 | 1021.0 |
| 20260507154037 | 17 | 43 | 6.4 | 27.4 | 0.00 | 0.00 | 0.00 | 81 | 1020.9 |
| 20260507153536 | 17 | 36 | 9.7 | 27.4 | 0.00 | 0.00 | 0.00 | 81 | 1020.4 |
| 20260507153046 | 17 | 5 | 6.4 | 27.4 | 0.00 | 0.00 | 0.00 | 81 | 1020.7 |
| 20260507152537 | 17 | 314 | 9.7 | 27.4 | 0.00 | 0.00 | 0.00 | 81 | 1020.6 |
| 20260507152036 | 17 | 295 | 11.3 | 29.0 | 0.00 | 0.00 | 0.00 | 80 | 1020.3 |
| 20260507151545 | 17 | 5 | 9.7 | 29.0 | 0.00 | 0.00 | 0.00 | 80 | 1020.3 |
| 20260507151037 | 17 | 322 | 8.0 | 27.4 | 0.00 | 0.00 | 0.00 | 81 | 1020.2 |
| 20260507150540 | 17 | 44 | 11.3 | 30.6 | 0.00 | 0.00 | 0.00 | 81 | 1019.9 |
| 20260507150043 | 17 | 334 | 4.8 | 30.6 | 0.00 | 0.00 | 0.00 | 82 | 1020.0 |
| 20260507145537 | 17 | 329 | 9.7 | 30.6 | 0.00 | 0.00 | 0.00 | 82 | 1020.1 |
| 20260507145035 | 17 | 360 | 11.3 | 27.4 | 0.00 | 0.00 | 0.00 | 82 | 1020.2 |
| 20260507144549 | 17 | 339 | 6.4 | 37.0 | 0.00 | 0.00 | 0.00 | 82 | 1020.4 |
| 20260507144038 | 17 | 5 | 9.7 | 40.2 | 0.00 | 0.00 | 0.00 | 83 | 1020.4 |
| 20260507143536 | 17 | 360 | 8.0 | 40.2 | 0.00 | 0.00 | 0.00 | 82 | 1020.3 |
| 20260507143051 | 17 | 45 | 6.4 | 24.1 | 0.00 | 0.00 | 0.00 | 83 | 1020.3 |
| 20260507142536 | 17 | 345 | 8.0 | 24.1 | 0.00 | 0.00 | 0.00 | 83 | 1020.2 |
| 20260507142040 | 17 | 346 | 8.0 | 25.7 | 0.00 | 0.00 | 0.00 | 83 | 1020.1 |
| 20260507141600 | 17 | 338 | 9.7 | 29.0 | 0.00 | 0.00 | 0.00 | 83 | 1020.1 |
| 20260507141037 | 17 | 291 | 3.2 | 29.0 | 0.00 | 0.00 | 0.00 | 83 | 1019.9 |
| 20260507140536 | 17 | 15 | 6.4 | 24.1 | 0.00 | 0.00 | 0.00 | 83 | 1019.9 |
| 20260507140052 | 16 | 5 | 4.8 | 22.5 | 0.00 | 0.00 | 0.00 | 83 | 1020.2 |
| 20260507135538 | 17 | 0 | 1.6 | 32.2 | 0.00 | 0.00 | 0.00 | 83 | 1020.2 |
| 20260507135037 | 16 | 352 | 11.3 | 32.2 | 0.00 | 0.00 | 0.00 | 83 | 1020.1 |
| 20260507134551 | 17 | 343 | 3.2 | 29.0 | 0.00 | 0.00 | 0.00 | 83 | 1020.0 |
| 20260507134036 | 17 | 329 | 9.7 | 29.0 | 0.00 | 0.00 | 0.00 | 83 | 1019.8 |
| 20260507133537 | 17 | 42 | 6.4 | 33.8 | 0.00 | 0.00 | 0.00 | 82 | 1020.1 |
| 20260507133050 | 17 | 280 | 6.4 | 33.8 | 0.00 | 0.00 | 0.00 | 82 | 1020.0 |
| 20260507132536 | 17 | 33 | 8.0 | 33.8 | 0.00 | 0.00 | 0.00 | 82 | 1019.9 |
| 20260507132036 | 17 | 55 | 6.4 | 22.5 | 0.00 | 0.00 | 0.00 | 82 | 1019.9 |
| 20260507131550 | 17 | 74 | 6.4 | 22.5 | 0.00 | 0.00 | 0.00 | 82 | 1019.8 |
| 20260507131036 | 17 | 314 | 4.8 | 22.5 | 0.00 | 0.00 | 0.00 | 82 | 1019.9 |
| 20260507130537 | 17 | 22 | 6.4 | 24.1 | 0.00 | 0.00 | 0.00 | 82 | 1019.8 |
| 20260507130051 | 17 | 346 | 6.4 | 24.1 | 0.00 | 0.00 | 0.00 | 81 | 1019.9 |
| 20260507125536 | 17 | 133 | 4.8 | 30.6 | 0.00 | 0.00 | 0.00 | 81 | 1020.0 |
| 20260507125036 | 17 | 334 | 8.0 | 30.6 | 0.00 | 0.00 | 0.00 | 81 | 1019.8 |
| 20260507124543 | 17 | 19 | 6.4 | 22.5 | 0.00 | 0.00 | 0.00 | 81 | 1019.7 |
| 20260507124039 | 17 | 340 | 6.4 | 22.5 | 0.00 | 0.00 | 0.00 | 81 | 1019.5 |
| 20260507123537 | 17 | 46 | 6.4 | 29.0 | 0.00 | 0.00 | 0.00 | 80 | 1019.5 |
| 20260507123046 | 17 | 5 | 6.4 | 29.0 | 0.00 | 0.00 | 0.00 | 81 | 1019.4 |
| 20260507122536 | 17 | 352 | 6.4 | 22.5 | 0.00 | 0.00 | 0.00 | 80 | 1019.4 |
| 20260507122038 | 17 | 53 | 6.4 | 22.5 | 0.00 | 0.00 | 0.00 | 80 | 1019.5 |
| 20260507121540 | 17 | 319 | 4.8 | 20.9 | 0.00 | 0.00 | 0.00 | 80 | 1019.4 |
| 20260507121037 | 17 | 340 | 4.8 | 20.9 | 0.00 | 0.00 | 0.00 | 80 | 1019.6 |
| 20260507120536 | 17 | 29 | 4.8 | 17.7 | 0.00 | 0.00 | 0.00 | 80 | 1019.5 |
| 20260507120039 | 17 | 334 | 3.2 | 17.7 | 0.00 | 0.00 | 0.00 | 80 | 1019.5 |
| 20260507115536 | 17 | 0 | 3.2 | 19.3 | 0.00 | 0.00 | 0.00 | 80 | 1019.4 |
| 20260507115037 | 17 | 43 | 4.8 | 19.3 | 0.00 | 0.00 | 0.00 | 80 | 1019.2 |
| 20260507114553 | 17 | 30 | 4.8 | 16.1 | 0.00 | 0.00 | 0.00 | 79 | 1018.9 |
| 20260507114035 | 17 | 40 | 6.4 | 16.1 | 0.00 | 0.00 | 0.00 | 79 | 1018.9 |
| 20260507113534 | 17 | 24 | 3.2 | 14.5 | 0.00 | 0.00 | 0.00 | 80 | 1018.6 |
| 20260507113044 | 17 | 344 | 1.6 | 16.1 | 0.00 | 0.00 | 0.00 | 80 | 1018.6 |
| 20260507112534 | 17 | 12 | 3.2 | 16.1 | 0.00 | 0.00 | 0.00 | 80 | 1018.5 |
| 20260507112033 | 17 | 0 | 1.6 | 12.9 | 0.00 | 0.00 | 0.00 | 80 | 1018.6 |
| 20260507111553 | 17 | 46 | 0.0 | 17.7 | 0.00 | 0.00 | 0.00 | 80 | 1018.6 |
| 20260507111033 | 17 | 26 | 1.6 | 17.7 | 0.00 | 0.00 | 0.00 | 80 | 1018.9 |
| 20260507110534 | 17 | 352 | 3.2 | 24.1 | 0.00 | 0.00 | 0.00 | 80 | 1018.6 |
| 20260507110049 | 17 | 0 | 4.8 | 24.1 | 0.00 | 0.00 | 0.00 | 79 | 1018.6 |
| 20260507105534 | 17 | 34 | 4.8 | 19.3 | 0.00 | 0.00 | 0.00 | 79 | 1018.6 |
| 20260507105034 | 17 | 9 | 6.4 | 19.3 | 0.00 | 0.00 | 0.00 | 79 | 1018.3 |
| 20260507104540 | 17 | 0 | 3.2 | 25.7 | 0.00 | 0.00 | 0.00 | 79 | 1018.2 |
| 20260507104034 | 17 | 326 | 9.7 | 27.4 | 0.00 | 0.00 | 0.00 | 79 | 1017.9 |
| 20260507103535 | 17 | 307 | 8.0 | 27.4 | 0.00 | 0.00 | 0.00 | 79 | 1017.8 |
| 20260507103045 | 17 | 322 | 4.8 | 25.7 | 0.00 | 0.00 | 0.00 | 79 | 1017.8 |
| 20260507102534 | 17 | 86 | 8.0 | 25.7 | 0.00 | 0.00 | 0.00 | 79 | 1018.0 |
| 20260507102035 | 17 | 18 | 3.2 | 24.1 | 0.00 | 0.00 | 0.00 | 79 | 1017.8 |
| 20260507101556 | 17 | 15 | 6.4 | 24.1 | 0.00 | 0.00 | 0.00 | 79 | 1017.9 |
| 20260507101034 | 17 | 28 | 4.8 | 24.1 | 0.00 | 0.00 | 0.00 | 79 | 1017.9 |
| 20260507100535 | 17 | 5 | 6.4 | 20.9 | 0.00 | 0.00 | 0.00 | 79 | 1017.7 |
| 20260507100047 | 17 | 352 | 3.2 | 19.3 | 0.00 | 0.00 | 0.00 | 79 | 1017.9 |
| 20260507095535 | 17 | 348 | 3.2 | 19.3 | 0.00 | 0.00 | 0.00 | 80 | 1017.8 |
| 20260507095034 | 17 | 0 | 3.2 | 22.5 | 0.00 | 0.00 | 0.00 | 79 | 1017.6 |
| 20260507094542 | 17 | 334 | 6.4 | 22.5 | 0.00 | 0.00 | 0.00 | 79 | 1017.7 |
| 20260507094034 | 17 | 318 | 3.2 | 24.1 | 0.00 | 0.00 | 0.00 | 79 | 1017.9 |
| 20260507093534 | 17 | 360 | 4.8 | 24.1 | 0.00 | 0.00 | 0.00 | 79 | 1017.8 |
| 20260507093045 | 17 | 315 | 6.4 | 16.1 | 0.00 | 0.00 | 0.00 | 79 | 1017.8 |
| 20260507092534 | 17 | 9 | 1.6 | 16.1 | 0.00 | 0.00 | 0.00 | 80 | 1018.0 |
| 20260507092035 | 17 | 26 | 4.8 | 16.1 | 0.00 | 0.00 | 0.00 | 80 | 1017.9 |
| 20260507091545 | 17 | 15 | 6.4 | 17.7 | 0.00 | 0.00 | 0.00 | 80 | 1018.0 |
| 20260507091038 | 17 | 55 | 3.2 | 17.7 | 0.00 | 0.00 | 0.00 | 80 | 1018.0 |
| 20260507090535 | 17 | 311 | 4.8 | 20.9 | 0.00 | 0.00 | 0.00 | 80 | 1018.1 |
| 20260507090043 | 17 | 5 | 4.8 | 20.9 | 0.00 | 0.00 | 0.00 | 79 | 1018.0 |
| 20260507085538 | 17 | 27 | 6.4 | 19.3 | 0.00 | 0.00 | 0.00 | 79 | 1017.9 |
| 20260507085035 | 17 | 325 | 4.8 | 17.7 | 0.00 | 0.00 | 0.00 | 79 | 1017.8 |
| 20260507084543 | 17 | 0 | 6.4 | 16.1 | 0.00 | 0.00 | 0.00 | 79 | 1017.9 |
| 20260507084034 | 18 | 0 | 1.6 | 16.1 | 0.00 | 0.00 | 0.00 | 79 | 1018.1 |
| 20260507083535 | 18 | 360 | 3.2 | 12.9 | 0.00 | 0.00 | 0.00 | 79 | 1018.2 |
| 20260507083041 | 18 | 0 | 3.2 | 11.3 | 0.00 | 0.00 | 0.00 | 79 | 1018.0 |
| 20260507082536 | 18 | 0 | 1.6 | 9.7 | 0.00 | 0.00 | 0.00 | 79 | 1018.1 |
| 20260507082036 | 18 | 352 | 0.0 | 16.1 | 0.00 | 0.00 | 0.00 | 79 | 1018.0 |
| 20260507081540 | 18 | 0 | 3.2 | 19.3 | 0.00 | 0.00 | 0.00 | 79 | 1018.0 |
| 20260507081036 | 18 | 339 | 1.6 | 19.3 | 0.00 | 0.00 | 0.00 | 79 | 1018.0 |
| 20260507080538 | 18 | 360 | 3.2 | 16.1 | 0.00 | 0.00 | 0.00 | 79 | 1018.1 |
| 20260507080053 | 18 | 288 | 3.2 | 14.5 | 0.00 | 0.00 | 0.00 | 79 | 1018.2 |
| 20260507075536 | 18 | 39 | 0.0 | 16.1 | 0.00 | 0.00 | 0.00 | 79 | 1018.4 |
| 20260507075036 | 18 | 0 | 3.2 | 17.7 | 0.00 | 0.00 | 0.00 | 79 | 1018.2 |
| 20260507074552 | 18 | 44 | 4.8 | 17.7 | 0.00 | 0.00 | 0.00 | 79 | 1018.1 |
| 20260507074035 | 18 | 329 | 4.8 | 17.7 | 0.00 | 0.00 | 0.00 | 79 | 1018.3 |
| 20260507073537 | 18 | 346 | 0.0 | 19.3 | 0.00 | 0.00 | 0.00 | 80 | 1018.2 |
| 20260507073045 | 18 | 0 | 3.2 | 19.3 | 0.00 | 0.00 | 0.00 | 79 | 1018.2 |
| 20260507072534 | 18 | 5 | 3.2 | 19.3 | 0.00 | 0.00 | 0.00 | 79 | 1017.9 |
| 20260507072036 | 18 | 349 | 4.8 | 19.3 | 0.00 | 0.00 | 0.00 | 79 | 1017.9 |
| 20260507071542 | 18 | 352 | 1.6 | 24.1 | 0.00 | 0.00 | 0.00 | 79 | 1017.9 |
| 20260507071038 | 18 | 92 | 3.2 | 24.1 | 0.00 | 0.00 | 0.00 | 79 | 1018.0 |
| 20260507070536 | 18 | 45 | 3.2 | 19.3 | 0.00 | 0.00 | 0.00 | 79 | 1018.0 |
| 20260507070054 | 18 | 246 | 3.2 | 14.5 | 0.00 | 0.00 | 0.00 | 80 | 1018.1 |